PA2JOK Weather Reports


time (UTC)temp
F
wind
direction
speed
knots
gust
knots
rain 1hr
in
rain 24hr
in
rain mn
in
humidity
%
barometer
mb
20260507094803 63 0 1.7 5.2 0.00 0.00 0.00 49 1015.9
20260507093303 63 21 1.7 5.2 0.00 0.00 0.00 47 1015.9
20260507091802 61 25 0.0 5.2 0.00 0.00 0.00 47 1015.8
20260507090303 61 26 0.0 5.2 0.00 0.00 0.00 47 1015.8
20260507084803 61 27 0.0 5.2 0.00 0.00 0.00 48 1015.8
20260507083303 61 7 0.0 3.5 0.00 0.00 0.00 52 1015.8
20260507081802 61 160 0.0 5.2 0.00 0.00 0.00 52 1015.8
20260507080302 60 63 1.7 5.2 0.00 0.00 0.00 54 1015.6
20260507074802 59 18 0.0 5.2 0.00 0.00 0.00 55 1015.5
20260507073303 56 25 1.7 5.2 0.00 0.00 0.00 59 1015.4
20260507071802 57 1 0.0 5.2 0.00 0.00 0.00 60 1015.4
20260507070303 56 20 1.7 5.2 0.00 0.00 0.00 60 1015.4
20260507064802 55 56 0.0 3.5 0.00 0.00 0.00 63 1015.3
20260507063303 54 2 0.0 3.5 0.00 0.00 0.00 64 1015.2
20260507061803 53 18 0.0 3.5 0.00 0.00 0.00 68 1015.2
20260507060302 51 29 1.7 3.5 0.00 0.00 0.00 71 1015.0
20260507054802 50 39 0.0 3.5 0.00 0.00 0.00 72 1014.8
20260507053303 50 15 0.0 1.7 0.00 0.00 0.00 73 1014.8
20260507051803 49 9 0.0 1.7 0.00 0.00 0.00 75 1014.7
20260507050303 48 8 0.0 1.7 0.00 0.00 0.00 77 1014.5
20260507044803 46 17 0.0 1.7 0.00 0.00 0.00 78 1014.4
20260507043303 46 30 0.0 1.7 0.00 0.00 0.00 78 1014.2
20260507041803 46 35 0.0 0.0 0.00 0.00 0.00 76 1014.1
20260507040303 46 35 0.0 1.7 0.00 0.00 0.00 75 1014.1
20260507034803 46 38 0.0 1.7 0.00 0.00 0.00 74 1014.0
20260507033303 46 28 0.0 3.5 0.00 0.00 0.00 73 1013.8
20260507031802 46 13 1.7 3.5 0.00 0.00 0.00 73 1013.9
20260507030303 46 68 3.5 3.5 0.00 0.00 0.00 73 1013.8
20260507024803 46 54 0.0 3.5 0.00 0.00 0.00 73 1013.7
20260507023303 47 56 0.0 3.5 0.00 0.00 0.00 73 1013.7
20260507021803 47 46 0.0 1.7 0.00 0.00 0.00 73 1013.5
20260507020303 47 54 0.0 3.5 0.00 0.00 0.00 72 1013.4
20260507014802 47 56 0.0 3.5 0.00 0.00 0.00 71 1013.4
20260507013302 48 69 0.0 5.2 0.00 0.00 0.00 71 1013.3
20260507011803 48 82 0.0 5.2 0.00 0.00 0.00 71 1013.3
20260507010303 49 14 1.7 3.5 0.00 0.00 0.00 70 1013.2
20260507004802 49 38 0.0 1.7 0.00 0.00 0.00 69 1013.2
20260507003303 49 56 1.7 3.5 0.00 0.00 0.00 68 1013.1
20260507001803 49 63 0.0 1.7 0.00 0.00 0.00 68 1013.0
20260507000303 50 64 0.0 0.0 0.00 0.00 0.00 67 1013.0
20260506234803 50 20 0.0 5.2 0.00 0.00 0.00 67 1012.9
20260506233302 50 66 0.0 5.2 0.00 0.00 0.00 66 1012.8
20260506231802 50 77 0.0 5.2 0.00 0.00 0.00 66 1012.7
20260506230302 50 77 0.0 7.0 0.00 0.00 0.00 66 1012.6
20260506224803 51 59 0.0 7.0 0.00 0.00 0.00 67 1012.5
20260506223302 51 35 0.0 3.5 0.00 0.00 0.00 67 1012.5
20260506221803 51 34 0.0 5.2 0.00 0.00 0.00 66 1012.5
20260506220303 51 35 0.0 5.2 0.00 0.00 0.00 68 1012.4
20260506214802 51 18 0.0 3.5 0.00 0.00 0.00 67 1012.3
20260506213302 52 23 0.0 0.0 0.00 0.00 0.00 65 1012.2
20260506211802 52 23 0.0 1.7 0.00 0.00 0.00 65 1012.1
20260506210302 52 24 1.7 3.5 0.00 0.00 0.00 64 1012.0
20260506204802 52 32 1.7 3.5 0.00 0.00 0.00 63 1012.1
20260506203303 52 34 0.0 5.2 0.00 0.00 0.00 63 1011.9
20260506201802 52 16 0.0 0.0 0.00 0.00 0.00 62 1011.7
20260506200302 52 19 0.0 1.7 0.00 0.00 0.00 60 1011.7
20260506194802 53 24 0.0 1.7 0.00 0.00 0.00 59 1011.6
20260506193302 52 25 0.0 3.5 0.00 0.00 0.00 58 1011.4
20260506191802 52 29 0.0 7.0 0.00 0.00 0.00 58 1011.3
20260506190303 52 60 5.2 8.7 0.00 0.00 0.00 57 1011.3
20260506184803 52 148 0.0 7.0 0.00 0.00 0.00 57 1011.0
20260506183303 52 149 1.7 7.0 0.00 0.00 0.00 57 1010.9
20260506181802 53 108 0.0 3.5 0.00 0.00 0.00 57 1010.8
20260506180303 52 71 0.0 3.5 0.00 0.00 0.00 57 1010.6
20260506174802 52 65 3.5 3.5 0.00 0.00 0.00 57 1010.3
20260506173303 53 94 0.0 3.5 0.00 0.00 0.00 57 1010.2
20260506171802 53 84 1.7 5.2 0.00 0.00 0.00 56 1010.1
20260506170304 53 141 0.0 5.2 0.00 0.00 0.00 56 1010.0
20260506164802 53 95 1.7 7.0 0.00 0.00 0.00 56 1010.1
20260506163303 52 95 3.5 8.7 0.00 0.00 0.00 55 1010.1
20260506161803 53 65 5.2 12.2 0.00 0.00 0.00 56 1010.2
20260506160302 53 91 3.5 10.4 0.00 0.00 0.00 55 1010.2
20260506154803 53 93 0.0 8.7 0.00 0.00 0.00 53 1010.1
20260506153302 53 117 0.0 13.9 0.00 0.00 0.00 53 1010.1
20260506151803 53 97 1.7 8.7 0.00 0.00 0.00 53 1010.0
20260506150304 52 76 3.5 10.4 0.00 0.00 0.00 55 1010.0
20260506144802 52 104 7.0 12.2 0.00 0.00 0.00 55 1010.0
20260506143303 52 127 0.0 14.8 0.00 0.00 0.00 56 1010.1
20260506141803 53 177 0.0 10.4 0.00 0.00 0.00 54 1009.9
20260506140303 53 60 5.2 10.4 0.00 0.00 0.00 53 1009.9
20260506134803 53 128 0.0 14.8 0.00 0.00 0.00 52 1009.9
20260506133303 53 57 12.2 20.0 0.00 0.00 0.00 51 1009.9
20260506131802 53 89 8.7 27.8 0.00 0.00 0.00 49 1009.7
20260506130302 54 42 5.2 14.8 0.00 0.00 0.00 48 1009.6
20260506124802 54 74 0.0 12.2 0.00 0.00 0.00 50 1009.5
20260506123303 54 67 8.7 18.2 0.00 0.00 0.00 53 1009.4
20260506121803 55 96 1.7 10.4 0.00 0.00 0.00 52 1009.3
20260506120303 55 46 0.0 8.7 0.00 0.00 0.00 53 1009.2
20260506114803 56 18 5.2 12.2 0.00 0.00 0.00 59 1009.1
20260506113303 57 4 3.5 10.4 0.00 0.00 0.00 57 1009.1
20260506111802 57 33 3.5 10.4 0.00 0.00 0.00 56 1009.1
20260506110302 58 20 1.7 13.9 0.00 0.00 0.00 45 1009.0
20260506104803 56 187 0.0 18.2 0.00 0.00 0.00 47 1009.2
20260506103303 56 99 3.5 10.4 0.00 0.00 0.00 48 1009.0
20260506101803 55 137 3.5 13.9 0.00 0.00 0.00 49 1009.0
20260506100302 55 115 1.7 18.2 0.00 0.00 0.00 51 1008.8